Regional Weather Roundup
Issued by NWS

Home | Current Version | Previous Version | Graphics & Text | Print | Product List | Glossary On
Versions: 1 2 3 4 5 6 7 8 9 10 11 12 13 14 15 16 17 18 19 20 21 22 23 24 25 26 27 28 29 30 31 32 33 34 35 36 37 38 39 40 41 42 43 44 45 46 47 48 49 50
000
ASUS43 KMPX 241301
RWRMN
WEATHER ROUNDUP FOR MINNESOTA
NATIONAL WEATHER SERVICE TWIN CITIES/CHANHASSEN MN
800 AM CDT THU APR 24 2014


NOTE: "FAIR" INDICATES FEW OR NO CLOUDS BELOW 12,000 FEET WITH NO
SIGNIFICANT WEATHER AND/OR OBSTRUCTIONS TO VISIBILITY. N/A MEANS
CURRENT SKY AND/OR WEATHER CONDITIONS ARE NOT AVAILABLE.

MNZ060>063-068>070-241400-
   Twin Cities Metro

CITY           SKY/WX    TMP DP  RH WIND       PRES   REMARKS
TWIN CITIES    LGT RAIN  40  39  97 E14       29.79F
ST PAUL        LGT RAIN  40  38  93 E14       29.81F FOG
CRYSTAL        LGT RAIN  41  38  89 E13       29.79F FOG
EDEN PRAIRIE   RAIN      41  39  93 E12       29.77F FOG
LAKEVILLE      LGT RAIN  37  37 100 E13       29.77F
SOUTH ST PAUL  LGT RAIN  42  41  95 E10       29.80F
LAKE ELMO      LGT RAIN  39  37  93 E12       29.83F
$$
MNZ001>005-007-008-013>017-022>024-027-028-241400-
   Northwest Minnesota

CITY           SKY/WX    TMP DP  RH WIND       PRES   REMARKS
BEMIDJI        CLOUDY    35  35  98 E10       29.80F FOG     WCI  28
HALLOCK        LGT RAIN  39  37  93 SE13      29.78F
ROSEAU         CLOUDY    37  34  87 SE10      29.83S
WARROAD        CLOUDY    37  34  87 SE12G17   29.85S
THIEF RVR FALL CLOUDY    37  34  87 SE12      29.81R
CROOKSTON      MIX PCPN  37  37 100 SE8       29.79F
FOSSTON        CLOUDY    37  36  93 SE12      29.79S
DETROIT LAKES  CLOUDY    39  37  93 SE10      29.78R FOG
MOORHEAD       LGT RAIN  41  41 100 CALM      29.78S
PARK RAPIDS    CLOUDY    38  38 100 SE13      29.78F FOG
$$
MNZ006-009>011-018-025>026-241400-
   North Central Minnesota

CITY           SKY/WX    TMP DP  RH WIND       PRES   REMARKS
BAUDETTE       CLOUDY    37  35  92 SE10      29.87F
FLAG ISLAND    DRIZZLE   36  34  93 E10       29.86F
INTL FALLS     CLOUDY    38  35  89 SE10      29.90R
WASKISH        MIX PCPN  37  36  93 E12       29.84F
BIG FORK       CLOUDY    37  36  93 SE10      29.88S
LONGVILLE      DRIZZLE   37  36  93 E6        29.82F
GRAND RAPIDS   CLOUDY    36  34  93 SE9G17    29.86F
CRANE LAKE     DRIZZLE   36  36 100 CALM      29.95S
ORR            CLOUDY    37  34  87 SE6       29.88F
COOK           DRIZZLE   37  36  93 SE12      29.91S
$$
MNZ012-019>021-037-241400-
   Northeast Minnesota

CITY           SKY/WX    TMP DP  RH WIND       PRES   REMARKS
DULUTH         DRIZZLE   35  33  92 SE20      29.92S FOG     WCI  24
ELY            CLOUDY    37  36  93 SE12G17   29.95S
HIBBING        CLOUDY    37  34  89 SE14      29.90S
EVELETH        CLOUDY    36  36 100 SE10G18   29.92S
DULUTH HARBOR  CLOUDY    34  32  93 CALM      29.97S
TWO HARBORS    DRIZZLE   36  30  80 E13       29.95S
SILVER BAY     DRIZZLE   34  34 100 E7        29.98S WCI  28
GRAND MARAIS     N/A     36  30  79 NE5       30.03F
G MARAIS ARPRT CLOUDY    36  28  75 E5        30.00F
$$
MNZ029>031-032-039>041-046>048-054>057-064-241400-
   West Central Minnesota

CITY           SKY/WX    TMP DP  RH WIND       PRES   REMARKS
FERGUS FALLS   CLOUDY    41  36  81 SE8       29.74R
WHEATON        CLOUDY    43  41  93 CALM      29.78R
MORRIS         FOG       41  39  93 E7        29.74R VSB 1
ALEXANDRIA     CLOUDY    40  38  93 E10       29.75F FOG
ELBOW LAKE     CLOUDY    40  38  94 E9        29.75R FOG
WADENA         CLOUDY    39  37  93 E8        29.76F FOG
GLENWOOD       CLOUDY    39  39 100 E13G18    29.75S FOG
APPLETON       DRIZZLE   43  41  93 E3        29.73S
BENSON         DRZL/FOG  41  39  93 SE7       29.73S VSB 1
ORTONVILLE     RAIN      41  37  87 E6        29.74R
MADISON        LGT RAIN  45  43  93 N3        29.72S
WILLMAR        DRIZZLE   43  39  87 E12       29.75R
$$
MNZ033>034-036-042>043-049>051-058-059-241400-
   Central Minnesota

CITY           SKY/WX    TMP DP  RH WIND       PRES   REMARKS
ST CLOUD       CLOUDY    43  39  86 E9        29.78F FOG
SAUK CENTRE    CLOUDY    40  39  97 E12       29.75F FOG
PAYNESVILLE    DRIZZLE   40  39  95 E12       29.76S
AITKIN         CLOUDY    41  36  81 E8        29.82F HAZE
PINE RIVER     CLOUDY    37  37 100 E8        29.84F FOG
BRAINERD       CLOUDY    43  37  79 E9        29.81F HAZE
STAPLES        CLOUDY    39  37  93 E7        29.78F FOG
LONG PRAIRIE   CLOUDY    39  37  93 E8        29.76F
LITTLE FALLS   CLOUDY    39  37  93 E12G17    29.79F FOG
LITCHFIELD     DRIZZLE   43  43 100 E14       29.75S
BUFFALO        LGT RAIN  41  38  89 E10G20    29.78F
MAPLE LAKE     DRIZZLE   41  40  96 E8G17     29.78S
$$
MNZ037-044-045-052-053-241400-
   East Central Minnesota

CITY           SKY/WX    TMP DP  RH WIND       PRES   REMARKS
PRINCETON      DRIZZLE   41  39  93 E8G17     29.81F
MORA           DRIZZLE   36  34  93 E10       29.86S
CAMBRIDGE      RAIN      41  36  81 E9        29.81F
RUSH CITY      CLOUDY    39  37  92 E9G17     29.85F
MOOSE LAKE     CLOUDY    37  36  93 SE5       29.87S FOG
HINCKLEY       RAIN      37  37 100 E9        29.86S
CLOQUET        DRIZZLE   36  34  93 E13       29.90F
MCGREGOR       CLOUDY    37  36  93 E13       29.87S
$$
MNZ071>073-080-081-089-090-097-098-241400-
   Southwest Minnesota

CITY           SKY/WX    TMP DP  RH WIND       PRES   REMARKS
MONTEVIDEO     DRIZZLE   43  43 100 SE6       29.72S
GRANITE FALLS  CLOUDY    42  40  93 E6        29.71F FOG
CANBY          LGT RAIN  41  41  99 N3        29.72S VSB 1
MARSHALL       CLOUDY    43  39  87 SE7       29.69S
REDWOOD FALLS  LGT RAIN  44  42  93 E5        29.71R FOG
OLIVIA         CLOUDY    43  39  87 E8        29.72R FOG
PIPESTONE      DRIZZLE   43  43 100 CALM      29.68S
WINDOM         RAIN      43  41  93 SE12      29.69R
WORTHINGTON    CLOUDY    43  37  81 S12       29.70R
JACKSON        LGT RAIN  43  39  87 SE15      29.68R
TRACY          DRIZZLE   44  42  94 CALM      29.70R
SLAYTON        DRIZZLE   42  42  99 S9        29.70R
$$
MNZ065>067-074>077-082>085-091>093-241400-
   South Central Minnesota

CITY           SKY/WX    TMP DP  RH WIND       PRES   REMARKS
MANKATO        CLOUDY    43  39  87 SE12      29.73F
NEW ULM        LGT RAIN  43  43 100 E10       29.69F
ST JAMES       LGT RAIN  43  41  93 E12       29.70S
FAIRMONT       CLOUDY    43  37  81 SE16G24   29.70R
GLENCOE        LGT RAIN  42  39  89 E21       29.72F
FARIBAULT      LGT RAIN  43  37  81 E10G17    29.76F
OWATONNA       CLOUDY    43  39  87 SE20G29   29.73F
WASECA         CLOUDY    41  36  81 E18       29.74S
ALBERT LEA     CLOUDY    41  41 100 SE20G30   29.72S
$$
MNZ078>079-086>088-094>096-241400-
   Southeast Minnesota

CITY           SKY/WX    TMP DP  RH WIND       PRES   REMARKS
ROCHESTER      RAIN      40  37  89 SE25G36   29.76F FOG
RED WING       LGT RAIN  39  37  93 SE15G22   29.81R
STANTON        DRIZZLE   41  37  86 E12       29.76F
DODGE CENTER   LGT RAIN  43  41  93 SE23      29.75F
WINONA         HVY RAIN  39  37  93 SE12G17   29.88S
AUSTIN         CLOUDY    43  37  81 SE21G29   29.74F
PRESTON        LGT RAIN  40  38  95 E16       29.81F
$$
ABBREVIATIONS USED IN REMARKS
   TC - TEMPERATURES IN CELSIUS
  WCI - WIND CHILL INDEX
   HX - HEAT INDEX
  VSB - VISIBILITY
$$


USA.gov is the U.S. government's official web portal to all federal, state and local government web resources and services.